Location: Cuzcurrita-R�o Tir�n
(42.5415°N, 2.9642°W)
Time: 02:10:44
(UTC+00:00)

Meteor 2-10 Rocket - Pass Details

Date: 17 January 2021
Orbit: 733 x 885 km, 81.2° (Epoch: 08 March)

Event Time Altitude Azimuth Distance (km) Brightness Sun altitude
Rises 17:57:34 0° 358° (N) 3,431 6.7 -9.4°
Reaches altitude 10° 18:00:20 10° 9° (N) 2,467 5.9 -9.9°
Maximum altitude 18:05:13 30° 70° (ENE) 1,423 4.3 -10.8°
Drops below altitude 10° 18:09:54 10° 132° (SE) 2,363 5.7 -11.6°
Sets 18:12:30 0° 143° (SE) 3,262 6.5 -12.0°
